Date String (YYYY-MM-DD hh:mm:ss) UTC,Instrument flags,absolute air pressure of the measurement (hPa),sample flow rate (lpm),inlet stack bypass flow (lpm),air temperature of the measurement (°C),ambient temperature measured by the external sensor (°C),aerosol sample conditioner tube jacket temperature (°C),OPC LED temperature (°C),internal box temperature (°C),relative humidity of the measurement (%),span deviation,mass concentration of particles derived from Lorenz-Mie calculation of OPC scattering (μg/m³),mass concentration of particles derived from Lorenz-Mie calculation of OPC scattering (μg/m³),mass concentration of particles derived from Lorenz-Mie calculation of OPC scattering (μg/m³)
DateTimeUTC,F1_M11,P_M11,Q1_M11,Q2_M11,T1_M11,T2_M11,T3_M11,T4_M11,T5_M11,U1_M11,ZSPAN_M11,X0_M11,X2_M11,X1_M11
2023-07-17 11:00:00,SystemResetWarning,0833.5,5.00,000.00,029.5,028.1,000.0,037.9,031.0,17.9,0000.8,0010.11,0005.93,0005.41
2023-07-17 11:01:00,SystemResetWarning,0833.5,5.00,000.00,029.5,028.1,000.0,037.9,031.1,17.9,0001.1,0010.14,0005.87,0005.32
2023-07-17 11:02:00,SystemResetWarning,0833.6,5.00,000.00,029.5,028.2,000.0,038.0,031.1,18.3,0001.0,0009.99,0005.81,0005.23
2023-07-17 11:03:00,SystemResetWarning,0833.6,5.01,000.00,029.5,028.2,000.0,038.0,031.1,18.8,0000.9,0009.60,0005.67,0005.16
2023-07-17 11:04:00,SystemResetWarning,0833.6,5.00,000.00,029.6,028.3,000.0,038.0,031.2,18.5,0000.5,0009.09,0005.55,0005.06
2023-07-17 11:05:00,SystemResetWarning,0833.6,5.01,000.00,029.6,028.3,000.0,038.0,031.2,17.6,0000.5,0008.89,0005.46,0004.96
2023-07-17 11:06:00,SystemResetWarning,0833.5,5.00,000.00,029.6,028.4,000.0,038.0,031.2,17.5,0000.6,0008.69,0005.32,0004.85
2023-07-17 11:07:00,SystemResetWarning,0833.5,4.99,000.00,029.6,028.4,000.0,038.0,031.2,18.8,0000.6,0008.55,0005.19,0004.72
2023-07-17 11:08:00,SystemResetWarning,0833.5,5.00,000.00,029.7,028.4,000.0,038.1,031.2,17.9,0000.7,0008.36,0005.07,0004.61
2023-07-17 11:09:00,SystemResetWarning,0833.5,5.00,000.00,029.7,028.5,000.0,038.1,031.3,17.5,0000.8,0008.17,0004.99,0004.52
2023-07-17 11:10:00,SystemResetWarning,0833.5,5.01,000.00,029.7,028.5,000.0,038.1,031.3,17.2,0001.3,0007.96,0004.92,0004.49
2023-07-17 11:11:00,SystemResetWarning,0833.5,5.00,000.00,029.7,028.4,000.0,038.1,031.3,17.6,0001.0,0007.84,0004.88,0004.46
2023-07-17 11:12:00,SystemResetWarning,0833.5,4.99,000.00,029.7,026.7,000.0,038.0,031.2,17.2,0000.4,0007.71,0004.82,0004.43
2023-07-17 11:13:00,SystemResetWarning,0833.5,5.01,000.00,029.6,025.3,000.0,037.9,030.9,17.8,0000.4,0007.64,0004.75,0004.40
2023-07-17 11:14:00,SystemResetWarning,0833.4,5.01,000.00,029.5,025.3,000.0,037.8,030.7,18.2,0000.4,0007.96,0004.73,0004.38
2023-07-17 11:15:00,SystemResetWarning,0833.4,4.99,000.00,029.4,025.6,000.0,037.9,030.6,17.9,0000.7,0007.92,0004.70,0004.35
2023-07-17 11:16:00,SystemResetWarning,0833.5,5.00,000.00,029.4,026.0,000.0,037.9,030.6,17.9,0000.8,0008.05,0004.68,0004.33
2023-07-17 11:17:00,SystemResetWarning,0833.5,5.01,000.00,029.3,026.4,000.0,037.9,030.7,18.0,0001.1,0008.09,0004.68,0004.31
2023-07-17 11:18:00,SystemResetWarning,0833.5,5.00,000.00,029.3,026.7,000.0,037.9,030.7,17.6,0001.8,0008.11,0004.68,0004.31
2023-07-17 11:19:00,SystemResetWarning,0833.5,5.00,000.00,029.3,027.0,000.0,037.9,030.8,18.4,0001.7,0008.06,0004.65,0004.29
2023-07-17 11:20:00,SystemResetWarning,0833.6,5.00,000.00,029.3,027.3,000.0,037.9,030.8,18.5,0001.8,0008.20,0004.61,0004.27
2023-07-17 11:21:00,SystemResetWarning,0833.5,5.00,000.00,029.4,027.5,000.0,037.9,030.9,17.8,0001.7,0008.80,0004.59,0004.24
2023-07-17 11:22:00,SystemResetWarning,0833.5,4.99,000.00,029.4,027.6,000.0,037.9,030.9,17.5,0001.2,0009.06,0004.58,0004.23
2023-07-17 11:23:00,SystemResetWarning,0833.6,4.99,000.00,029.4,027.7,000.0,037.9,030.9,17.7,0001.0,0009.13,0004.59,0004.22
2023-07-17 11:24:00,SystemResetWarning,0833.6,4.99,000.00,029.4,027.9,000.0,037.9,031.0,17.8,0001.1,0009.18,0004.60,0004.21
2023-07-17 11:25:00,SystemResetWarning,0833.6,5.00,000.00,029.4,028.0,000.0,037.9,031.0,17.6,0001.2,0008.80,0004.58,0004.18
2023-07-17 11:26:00,SystemResetWarning,0833.6,5.01,000.00,029.5,028.1,000.0,037.9,031.0,18.4,0000.1,0008.91,0004.59,0004.17
2023-07-17 11:27:00,SystemResetWarning,0833.6,5.01,000.00,029.5,028.1,000.0,037.9,031.1,18.8,0000.0,0009.40,0004.54,0004.15
2023-07-17 11:28:00,SystemResetWarning,0833.6,5.00,000.00,029.5,028.2,000.0,037.9,031.1,17.8,0000.0,0009.35,0004.52,0004.13
2023-07-17 11:29:00,SystemResetWarning,0833.6,5.00,000.00,029.5,028.2,000.0,038.0,031.1,17.9,0000.0,0009.35,0004.50,0004.13
2023-07-17 11:30:00,SystemResetWarning,0833.6,5.00,000.00,029.6,028.3,000.0,038.0,031.1,17.7,0000.0,0009.31,0004.50,0004.13
2023-07-17 11:31:00,SystemResetWarning,0833.6,4.99,000.00,029.6,028.3,000.0,038.0,031.2,17.7,0000.0,0009.23,0004.51,0004.14
2023-07-17 11:32:00,SystemResetWarning,0833.7,5.00,000.00,029.6,028.4,000.0,038.0,031.2,18.3,0000.0,0009.28,0004.54,0004.15
2023-07-17 11:33:00,SystemResetWarning,0833.6,5.00,000.00,029.6,028.4,000.0,038.0,031.2,18.0,0000.0,0009.07,0004.55,0004.16
2023-07-17 11:34:00,SystemResetWarning,0833.6,5.00,000.00,029.6,028.4,000.0,038.0,031.2,17.5,0000.0,0009.06,0004.56,0004.16
2023-07-17 11:35:00,SystemResetWarning,0833.6,5.00,000.00,029.7,028.4,000.0,038.1,031.3,17.4,0000.0,0008.97,0004.55,0004.17
2023-07-17 11:36:00,SystemResetWarning,0833.6,5.01,000.00,029.7,028.5,000.0,038.1,031.3,17.4,0000.0,0008.97,0004.55,0004.17
2023-07-17 11:37:00,SystemResetWarning,0833.7,5.00,000.00,029.7,028.5,000.0,038.1,031.3,17.6,0000.0,0008.89,0004.54,0004.17
2023-07-17 11:38:00,SystemResetWarning,0833.7,5.01,000.00,029.7,028.5,000.0,038.1,031.3,17.5,0000.0,0008.26,0004.54,0004.18
2023-07-17 11:39:00,SystemResetWarning,0833.7,5.00,000.00,029.8,028.5,000.0,038.2,031.4,17.4,0000.0,0008.15,0004.56,0004.20
2023-07-17 11:40:00,SystemResetWarning,0833.7,5.00,000.00,029.8,028.5,000.0,038.2,031.4,17.3,0000.0,0008.10,0004.56,0004.21
2023-07-17 11:41:00,SystemResetWarning,0833.7,5.00,000.00,029.8,028.6,000.0,038.2,031.4,17.3,0000.0,0008.12,0004.55,0004.20
2023-07-17 11:42:00,SystemResetWarning,0833.6,4.98,000.00,029.8,027.7,000.0,038.1,031.3,17.3,0000.0,0008.12,0004.57,0004.20
2023-07-17 11:43:00,SystemResetWarning,0833.5,5.00,000.00,029.8,025.7,000.0,038.0,031.1,17.3,0000.4,0007.73,0004.58,0004.20
2023-07-17 11:44:00,SystemResetWarning,0833.5,5.01,000.00,029.6,025.2,000.0,037.9,030.8,17.5,0000.5,0007.38,0004.56,0004.21
2023-07-17 11:45:00,SystemResetWarning,0833.5,5.02,000.00,029.5,025.4,000.0,037.9,030.6,17.7,0000.9,0007.37,0004.55,0004.21
2023-07-17 11:46:00,SystemResetWarning,0833.5,4.99,000.00,029.4,025.8,000.0,038.0,030.6,17.7,0001.3,0007.39,0004.54,0004.21
2023-07-17 11:47:00,SystemResetWarning,0833.6,5.00,000.00,029.4,026.2,000.0,038.0,030.7,17.7,0000.3,0007.51,0004.57,0004.22
2023-07-17 11:48:00,SystemResetWarning,0833.6,5.00,000.00,029.4,026.6,000.0,038.0,030.8,17.7,0000.0,0008.05,0004.56,0004.23
2023-07-17 11:49:00,SystemResetWarning,0833.6,4.99,000.00,029.4,026.9,000.0,038.0,030.8,18.1,0000.0,0008.10,0004.58,0004.23
2023-07-17 11:50:00,SystemResetWarning,0833.6,5.00,000.00,029.4,027.2,000.0,038.0,030.8,18.5,0000.0,0008.33,0004.58,0004.23
2023-07-17 11:51:00,SystemResetWarning,0833.6,5.00,000.00,029.4,027.4,000.0,038.0,030.9,18.7,0000.0,0008.66,0004.58,0004.23
2023-07-17 11:52:00,SystemResetWarning,0833.6,5.00,000.00,029.4,027.6,000.0,038.0,030.9,18.4,0000.0,0008.87,0004.60,0004.25
2023-07-17 11:53:00,SystemResetWarning,0833.6,4.99,000.00,029.4,027.7,000.0,038.0,031.0,18.4,0000.0,0009.21,0004.60,0004.25
2023-07-17 11:54:00,SystemResetWarning,0833.6,5.00,000.00,029.4,027.8,000.0,038.0,031.0,18.1,0000.0,0009.66,0004.59,0004.25
2023-07-17 11:55:00,SystemResetWarning,0833.6,5.01,000.00,029.5,027.9,000.0,038.0,031.0,17.9,0000.0,0009.63,0004.58,0004.24
2023-07-17 11:56:00,SystemResetWarning,0833.7,5.01,000.00,029.5,028.0,000.0,038.0,031.1,17.8,0000.0,0009.64,0004.57,0004.24
2023-07-17 11:57:00,SystemResetWarning,0833.7,4.99,000.00,029.5,028.1,000.0,038.0,031.1,17.8,0000.0,0010.18,0004.58,0004.25
2023-07-17 11:58:00,SystemResetWarning,0833.7,4.99,000.00,029.5,028.2,000.0,038.0,031.1,17.5,0000.0,0010.46,0004.59,0004.25
2023-07-17 11:59:00,SystemResetWarning,0833.7,4.99,000.00,029.6,028.2,000.0,038.0,031.1,17.5,0001.2,0010.25,0004.57,0004.24
